{"data":{"norad_id":66405,"epoch":"2026-09-20T14:20:49.074144Z","epoch_age_seconds":84962,"freshness":"FRESH","line1":"1 66405U 25257AB  26263.59779021  .00020967  00000+0  62998-3 0  9991","line2":"2 66405  53.1605  27.5173 0001187  94.6566 265.4572 15.34398141 49565","mean_motion":15.34398141,"eccentricity":0.0001187,"inclination_deg":53.1605,"raan_deg":27.5173,"arg_perigee_deg":94.6566,"mean_anomaly_deg":265.4572,"bstar":0.00062998,"rev_number":4956,"period_min":93.847871782582,"perigee_km":461.89675716008,"apogee_km":463.52077394482,"semimajor_km":6840.8457655524,"source":"CELESTRAK","updated_at":"2026-09-21T09:00:35.904731Z"}}